Location: Bonaustraße
(48.4603°N, 11.9280°E)
Time: 03:33:23
(UTC+01:00)

Envisat - Pass Details

Date: 22 January 2021
Orbit: 764 x 766 km, 98.1° (Epoch: 05 March)

Event Time Altitude Azimuth Distance (km) Brightness Sun altitude
Rises 05:44:17 0° 17° (NNE) 3,245 6.4 -21.0°
Reaches altitude 10° 05:46:40 10° 22° (NNE) 2,314 5.7 -20.6°
Maximum altitude 05:51:40 55° 100° (E) 917 3.7 -19.8°
Drops below altitude 10° 05:56:38 10° 178° (S) 2,295 5.6 -19.0°
Sets 05:58:58 0° 183° (S) 3,217 6.3 -18.6°
